Wind_Speed
34 34 35 35 35 36 36 37 38 39 41 42 43 44 43 42 42 43 43 41 41 40 40 40 39 38 38 38 37 36 35 34 34 33 33 32 32 31 31 30 29 28 28
40 40 40 40 39 39 40 40 40 40 41 42 43 43 43 43 44 45 45 44 42 42 43 44 44 44 43 42 42 42 41 40 38 37 37 36 36 35 34 33 32 30 29
46 46 46 46 45 44 44 44 44 44 44 44 45 46 46 45 45 46 46 45 44 44 44 44 45 46 45 45 46 46 45 44 43 42 41 41 40 39 38 37 35 34 32
52 52 52 52 52 51 50 49 50 50 50 49 49 49 50 49 48 48 49 48 47 46 46 46 46 46 47 47 48 49 50 49 48 47 45 45 44 43 42 40 39 37 36
56 56 56 57 57 57 56 55 54 54 54 54 53 53 53 52 51 51 51 51 49 48 48 48 48 48 48 48 50 51 52 52 51 51 50 48 47 46 45 43 42 41 39
59 60 60 60 61 61 61 60 59 58 57 57 57 56 55 54 54 53 52 51 51 50 49 50 50 50 49 50 51 52 54 54 54 54 53 52 51 50 48 47 45 44 42
59 60 61 62 62 63 63 63 62 61 59 58 58 58 57 56 55 54 53 52 52 52 51 51 51 51 51 51 51 52 54 55 56 56 56 55 54 53 52 50 48 46 45
59 59 60 61 62 63 63 63 62 61 61 59 58 58 57 57 56 55 53 52 51 52 51 52 52 51 51 52 53 53 54 55 57 57 57 56 56 55 54 52 51 49 47
63 62 61 61 62 62 62 63 62 62 61 60 59 59 59 59 58 56 55 51 49 49 49 50 52 52 52 52 53 53 54 55 57 58 58 57 56 54 54 53 53 52 50
67 66 65 64 63 63 63 63 63 63 62 60 60 61 61 61 60 59 59 58 55 53 52 52 53 55 55 55 55 55 55 56 57 57 57 57 56 55 54 53 53 52 52
69 68 67 66 65 64 64 63 63 62 62 62 61 61 62 62 62 62 61 61 61 60 58 57 58 58 57 56 56 56 56 56 56 57 57 57 56 55 54 53 52 51 51
69 68 67 66 66 65 63 63 62 62 62 62 62 62 61 61 60 61 62 62 62 62 61 60 59 58 57 55 55 54 54 54 55 55 56 56 55 54 53 53 53 52 52
67 66 65 65 64 63 62 61 61 61 61 61 61 60 59 58 58 59 61 63 64 62 61 60 60 58 56 55 54 54 54 54 55 56 56 56 57 56 56 55 54 54 53
60 60 60 60 60 59 58 58 59 59 59 59 58 57 57 57 58 58 59 60 61 62 61 60 59 58 56 55 55 55 55 55 55 56 56 56 56 56 55 55 55 55 56
56 55 55 56 57 56 55 55 54 56 57 56 55 55 56 56 57 57 58 59 59 60 59 58 58 58 57 56 55 56 56 55 55 54 54 54 54 54 54 54 55 56 57
53 52 54 56 56 55 53 50 49 51 51 51 50 50 52 54 55 57 57 57 58 58 58 58 57 57 57 56 54 53 53 52 52 51 50 50 50 50 51 52 53 55 56
53 52 49 51 52 52 49 45 42 42 43 44 46 48 50 51 53 54 55 56 57 57 57 56 57 56 56 54 52 51 50 49 47 46 46 45 46 46 47 48 49 51 53
48 51 49 47 47 48 45 40 38 39 42 44 46 48 50 51 52 52 53 54 55 56 56 55 55 55 54 51 49 48 48 47 46 44 43 44 44 44 45 46 47 48 50
42 45 47 44 45 44 41 37 38 39 41 43 45 47 49 50 51 51 51 53 54 55 55 54 52 51 50 48 46 46 46 46 46 45 43 43 44 44 44 45 46 48 50
37 39 40 41 42 42 39 38 38 39 40 41 42 44 45 45 46 47 48 49 51 53 53 51 48 47 47 45 45 45 45 45 45 45 44 43 43 44 44 45 47 48 49
29 32 35 36 38 39 38 38 38 39 39 40 41 41 40 40 41 43 44 45 46 48 49 48 46 45 45 43 43 43 44 43 44 43 43 43 44 45 45 46 46 47 47
22 26 29 32 33 35 36 37 38 39 39 39 39 38 38 37 37 38 39 40 42 43 45 45 45 44 42 41 40 41 41 41 41 42 42 43 44 45 47 47 47 46 46
17 20 23 26 28 31 33 35 37 39 39 38 37 36 35 34 33 34 35 37 39 41 42 43 42 41 40 40 40 40 41 41 41 43 43 44 46 47 48 48 48 46 45
18 19 21 23 25 27 30 32 35 37 37 36 34 33 32 31 31 33 34 36 37 39 41 41 41 41 41 41 41 41 41 41 42 44 45 45 47 47 48 49 48 47 45
19 20 21 23 25 27 29 31 33 33 34 33 32 31 31 30 31 32 32 33 36 39 40 41 41 42 42 43 43 43 43 43 43 45 46 46 47 48 48 49 49 48 46
19 21 22 23 25 27 29 30 32 33 33 32 31 31 32 32 31 31 32 33 35 37 39 41 42 44 44 44 45 45 45 45 45 46 47 47 48 48 48 49 50 49 48
Wind_Direction
273 272 271 269 268 268 268 268 269 269 269 269 268 267 266 266 265 265 265 264 263 263 263 264 263 263 261 261 260 259 259 258 258 257 256 255 254 253 254 257 259 260 260
273 272 271 270 268 267 266 266 266 267 268 269 269 269 268 267 265 264 264 263 263 262 262 262 262 262 261 260 260 259 259 258 258 257 256 256 256 255 253 254 256 258 260
273 272 271 270 269 267 266 265 265 265 266 268 268 268 267 267 267 267 266 264 262 261 261 260 260 260 260 259 258 258 257 257 257 257 256 255 255 256 256 255 254 255 257
273 272 271 270 268 267 266 265 265 265 265 266 267 267 266 266 266 267 267 267 265 263 262 261 260 259 258 257 256 256 256 256 256 256 255 254 254 254 256 257 257 256 256
271 271 270 269 268 267 266 265 265 265 265 265 265 265 265 264 264 264 265 266 266 264 263 262 261 259 258 256 255 254 254 254 255 255 255 254 253 253 253 255 256 257 257
268 268 268 267 267 267 266 265 264 264 264 263 263 263 263 263 263 262 262 262 262 262 262 261 261 260 258 256 254 253 253 253 253 253 253 253 252 252 252 253 254 255 256
268 267 267 267 266 266 265 265 264 263 262 262 261 261 261 261 260 260 259 258 259 259 260 261 261 260 259 258 255 254 253 252 252 252 252 252 252 251 251 252 253 254 255
271 269 268 267 266 265 265 264 263 262 261 260 259 259 258 258 258 256 255 255 255 256 257 259 260 260 259 258 256 255 253 252 252 251 251 251 251 251 252 252 253 254 254
274 272 271 269 267 265 264 263 262 261 260 259 259 258 257 256 255 255 253 252 252 252 253 255 257 257 257 256 255 254 253 252 251 250 250 251 251 251 252 253 253 254 254
273 272 270 268 266 264 262 261 260 259 259 258 258 257 257 256 256 254 253 252 250 250 250 251 253 254 254 255 254 253 253 252 250 250 250 250 251 250 251 252 254 255 256
269 268 267 266 264 262 260 259 257 257 256 256 256 257 257 257 257 256 254 253 252 252 252 253 255 255 255 255 255 254 252 252 251 250 250 249 249 249 249 250 251 254 255
266 264 262 261 261 260 258 257 255 254 254 254 255 256 257 258 258 257 256 254 253 253 254 255 255 255 254 253 253 252 251 250 249 249 249 249 248 248 249 250 250 252 253
262 261 259 259 259 258 256 254 253 252 252 252 254 255 256 256 256 257 256 255 253 252 252 253 253 253 252 252 252 251 250 249 248 248 248 249 249 250 250 250 250 250 252
260 259 258 258 258 256 253 252 252 252 252 252 253 255 256 256 256 256 256 255 254 252 251 250 250 251 251 251 252 251 250 249 249 250 250 251 250 250 250 250 250 251 252
257 258 258 257 256 255 254 253 252 252 252 252 253 255 256 256 256 256 255 254 253 251 250 249 249 249 250 251 251 251 250 250 250 251 251 250 250 250 250 251 251 252 252
253 253 254 255 254 255 255 253 252 251 251 252 253 255 256 256 256 256 254 253 252 250 249 248 248 249 249 249 250 250 250 250 250 250 250 250 250 250 251 251 252 252 253
252 249 251 251 252 252 252 250 250 250 251 253 254 255 257 257 257 256 253 251 249 248 247 246 246 247 247 248 247 248 249 249 249 248 249 250 251 252 253 254 255 255 256
254 249 247 247 248 248 247 248 250 253 254 255 256 257 257 257 256 254 251 248 247 246 244 243 243 245 246 246 246 247 247 248 248 248 249 250 252 253 255 256 258 258 259
256 251 248 244 243 243 245 248 253 255 256 257 258 260 259 256 255 253 251 247 244 242 242 241 240 242 243 245 246 247 247 247 247 247 247 249 252 254 256 257 258 259 260
253 250 248 244 242 243 246 249 253 256 257 260 262 262 260 257 254 252 250 247 243 240 238 237 237 238 241 244 246 246 247 246 246 246 247 249 252 255 256 258 259 260 261
250 247 244 243 243 243 245 248 253 257 261 263 264 263 259 256 254 251 250 245 240 236 233 233 235 238 241 243 244 244 244 244 245 246 247 250 252 254 257 259 261 262 264
244 242 242 242 242 242 244 248 254 259 263 265 265 263 259 256 254 251 246 240 235 230 229 231 235 238 240 241 242 241 241 242 244 246 248 250 253 255 257 260 262 265 266
240 238 240 240 243 243 245 250 256 260 263 265 265 263 257 254 251 246 241 236 231 228 228 231 235 238 240 241 241 240 240 241 244 247 249 251 253 254 257 259 262 264 267
246 244 243 243 246 248 251 255 258 260 262 265 264 259 253 251 248 241 237 233 230 230 231 233 237 239 240 241 242 243 243 244 246 248 249 250 253 254 256 258 261 264 267
253 248 248 248 250 251 252 253 256 259 262 264 261 255 250 246 243 240 238 235 233 233 234 237 239 242 243 245 245 246 246 247 248 250 251 252 253 255 257 259 262 264 266
260 256 254 253 253 253 253 253 255 258 261 261 258 253 247 242 240 240 240 240 240 240 240 242 244 246 247 247 249 249 249 250 250 252 253 254 254 255 256 259 261 263 265
Height
5778 5778 5778 5778 5778 5779 5779 5780 5780 5780 5781 5782 5783 5784 5787 5788 5789 5790 5791 5794 5796 5798 5800 5801 5803 5805 5806 5807 5809 5810 5811 5813 5814 5815 5817 5818 5819 5820 5822 5823 5825 5827 5828
5768 5768 5768 5768 5769 5769 5770 5770 5771 5771 5771 5772 5773 5774 5775 5777 5778 5779 5781 5783 5785 5787 5789 5791 5793 5796 5798 5800 5801 5803 5804 5805 5806 5808 5809 5811 5812 5813 5815 5816 5818 5820 5822
5758 5757 5757 5757 5758 5758 5759 5759 5760 5760 5761 5762 5762 5763 5764 5766 5767 5768 5769 5772 5774 5775 5777 5780 5782 5785 5788 5790 5792 5794 5795 5797 5798 5800 5802 5803 5805 5806 5808 5809 5811 5813 5815
5745 5745 5745 5745 5744 5745 5746 5746 5747 5748 5749 5750 5750 5751 5752 5754 5755 5756 5757 5759 5762 5764 5765 5767 5770 5773 5776 5779 5782 5784 5786 5788 5789 5791 5793 5795 5797 5798 5800 5802 5804 5806 5808
5730 5730 5731 5730 5730 5730 5731 5732 5733 5734 5735 5737 5738 5738 5739 5741 5743 5744 5745 5747 5749 5751 5753 5755 5757 5760 5763 5767 5770 5772 5775 5778 5780 5782 5784 5786 5788 5790 5792 5793 5795 5798 5800
5714 5714 5715 5715 5715 5715 5715 5716 5718 5719 5721 5722 5723 5724 5726 5728 5729 5731 5733 5734 5736 5738 5740 5742 5744 5747 5750 5753 5757 5760 5763 5766 5769 5772 5774 5776 5779 5781 5783 5785 5787 5789 5792
5697 5697 5698 5698 5698 5699 5699 5700 5701 5703 5704 5706 5708 5709 5711 5714 5716 5718 5720 5722 5723 5725 5726 5728 5731 5733 5736 5740 5744 5748 5751 5754 5757 5760 5763 5766 5768 5771 5773 5776 5778 5780 5783
5679 5680 5680 5680 5681 5682 5683 5684 5685 5686 5688 5690 5691 5693 5696 5699 5701 5704 5707 5708 5710 5712 5713 5715 5717 5720 5723 5727 5731 5735 5738 5741 5745 5748 5751 5754 5757 5760 5762 5765 5768 5770 5773
5660 5661 5662 5662 5663 5665 5666 5667 5668 5670 5672 5673 5675 5677 5680 5683 5686 5689 5692 5694 5696 5698 5700 5702 5704 5706 5709 5713 5717 5721 5725 5728 5732 5735 5739 5743 5746 5749 5751 5754 5757 5760 5763
5639 5640 5641 5642 5643 5646 5647 5649 5650 5652 5654 5656 5658 5660 5662 5666 5669 5673 5676 5679 5681 5683 5685 5688 5689 5691 5694 5698 5703 5708 5711 5714 5718 5722 5726 5729 5733 5737 5739 5742 5745 5748 5751
5617 5618 5620 5621 5622 5625 5628 5630 5632 5634 5636 5639 5641 5643 5645 5648 5651 5655 5660 5663 5666 5668 5671 5673 5675 5677 5680 5683 5688 5693 5697 5700 5704 5708 5712 5716 5720 5723 5727 5730 5734 5737 5740
5592 5594 5597 5599 5601 5605 5608 5611 5613 5616 5618 5621 5624 5627 5629 5632 5634 5637 5642 5646 5650 5653 5655 5658 5661 5662 5666 5670 5674 5678 5682 5686 5690 5694 5698 5702 5706 5710 5714 5717 5721 5725 5728
5568 5572 5576 5579 5581 5585 5589 5592 5595 5598 5601 5604 5607 5610 5613 5616 5618 5621 5624 5628 5633 5637 5640 5644 5646 5648 5652 5656 5660 5664 5668 5671 5676 5680 5684 5688 5692 5696 5700 5704 5708 5711 5715
5546 5551 5556 5559 5562 5567 5571 5574 5578 5581 5584 5588 5591 5594 5597 5600 5602 5605 5608 5611 5615 5620 5625 5629 5631 5634 5638 5643 5647 5650 5654 5658 5662 5666 5670 5674 5678 5682 5686 5690 5694 5697 5701
5528 5534 5538 5541 5545 5550 5555 5559 5562 5565 5568 5572 5575 5578 5581 5584 5586 5589 5592 5595 5600 5604 5609 5613 5616 5620 5624 5629 5633 5636 5640 5644 5648 5652 5656 5660 5664 5667 5671 5675 5679 5683 5686
5512 5517 5521 5526 5531 5536 5540 5544 5548 5551 5553 5556 5559 5562 5565 5568 5570 5573 5576 5579 5583 5589 5594 5598 5602 5605 5610 5615 5619 5622 5625 5630 5634 5638 5641 5645 5649 5652 5656 5660 5664 5667 5671
5494 5500 5506 5512 5517 5522 5527 5531 5534 5537 5539 5542 5545 5548 5550 5552 5555 5557 5560 5564 5568 5573 5579 5584 5587 5590 5594 5600 5604 5608 5612 5615 5619 5624 5627 5631 5634 5638 5641 5645 5648 5651 5655
5479 5485 5491 5498 5504 5510 5514 5518 5521 5524 5526 5528 5531 5533 5535 5537 5539 5541 5544 5548 5552 5557 5563 5569 5573 5576 5580 5586 5591 5595 5598 5602 5606 5610 5614 5617 5620 5624 5627 5630 5633 5636 5639
5466 5471 5478 5485 5491 5497 5502 5506 5508 5511 5513 5515 5517 5519 5520 5522 5524 5526 5529 5532 5537 5542 5548 5554 5560 5563 5567 5572 5577 5581 5585 5589 5593 5596 5600 5604 5607 5610 5613 5616 5619 5622 5625
5454 5460 5466 5473 5479 5485 5490 5493 5496 5498 5500 5502 5503 5505 5506 5507 5508 5510 5513 5517 5522 5527 5534 5540 5546 5551 5555 5560 5565 5568 5572 5576 5580 5583 5587 5591 5594 5597 5600 5603 5606 5608 5610
5445 5450 5456 5462 5467 5473 5477 5481 5483 5485 5487 5489 5490 5491 5492 5494 5495 5497 5499 5503 5507 5513 5520 5526 5533 5539 5544 5548 5553 5556 5560 5563 5567 5570 5574 5578 5582 5585 5587 5589 5591 5594 5595
5438 5442 5447 5452 5457 5461 5465 5468 5471 5473 5475 5477 5478 5479 5480 5481 5483 5484 5487 5490 5495 5501 5508 5515 5521 5526 5532 5537 5541 5545 5548 5552 5555 5558 5562 5566 5569 5572 5574 5576 5578 5579 5581
5433 5436 5440 5444 5448 5451 5455 5457 5459 5461 5464 5465 5466 5467 5468 5470 5472 5473 5476 5480 5485 5491 5497 5504 5509 5514 5520 5525 5529 5532 5536 5539 5543 5546 5549 5553 5555 5559 5561 5563 5564 5565 5566
5429 5431 5433 5436 5439 5442 5444 5446 5448 5450 5452 5454 5454 5455 5457 5460 5462 5463 5467 5471 5476 5482 5487 5493 5498 5503 5506 5511 5515 5520 5523 5527 5530 5532 5535 5539 5541 5545 5547 5548 5549 5550 5551
5424 5425 5426 5428 5431 5432 5434 5436 5438 5440 5441 5443 5444 5445 5448 5450 5452 5455 5459 5463 5468 5472 5477 5481 5485 5490 5494 5499 5503 5507 5510 5514 5516 5518 5521 5525 5527 5530 5532 5534 5534 5535 5536
5419 5419 5420 5421 5422 5423 5424 5426 5428 5429 5431 5432 5434 5436 5438 5440 5443 5446 5449 5453 5457 5461 5465 5469 5473 5477 5482 5486 5489 5493 5496 5499 5501 5503 5505 5509 5512 5514 5518 5520 5520 5521 5521